GFSFLT1_500_rhum_189.txt.gz
RH
31 33 32 35 41 45 44 40 44 47 50 54 51 44 40 42 47 55 60 67 72 76 81 83 91 94 94 93 93 78 70 52
34 36 38 41 44 50 54 54 53 58 63 61 58 58 57 60 69 74 78 81 83 90 96 96 93 94 93 97 92 59 48 37
35 40 44 48 54 59 59 64 68 73 77 74 66 61 59 60 67 83 94 98 98 99 99 96 97 96 98 96 89 71 46 36
38 41 46 55 58 67 76 79 91 96 88 80 82 82 86 83 96 100 96 94 94 96 95 93 95 98 97 94 69 55 45 38
40 41 43 53 65 78 97 94 94 100 100 96 86 98 97 98 94 83 87 92 94 97 97 99 98 96 97 94 77 55 49 44
34 39 38 44 49 61 86 96 95 93 88 98 100 89 90 96 96 100 94 97 95 100 98 98 97 98 99 96 89 61 56 43
37 42 43 48 57 64 69 83 88 80 100 100 84 99 100 88 98 96 98 97 92 100 98 93 97 95 98 95 95 89 74 46
40 44 45 54 57 65 77 86 98 92 86 99 92 100 74 67 80 96 89 94 100 90 98 98 95 100 99 99 95 68 50 31
48 44 43 42 49 58 64 76 90 85 98 98 93 100 88 73 74 99 92 96 97 95 70 82 100 95 97 97 91 67 43 34
58 55 48 43 42 45 59 77 83 85 91 97 87 91 89 81 89 77 92 94 76 98 99 99 100 100 96 79 52 48 44 40
59 56 56 57 54 47 45 50 53 80 83 76 74 78 98 88 85 98 90 74 99 97 94 97 100 86 60 50 45 40 45 45
54 49 42 44 51 57 54 50 52 61 76 77 74 78 72 94 90 92 96 99 100 100 100 100 94 78 58 45 43 41 37 41
52 49 44 45 57 58 63 62 75 79 74 82 75 68 75 91 98 97 99 98 100 98 98 94 98 80 60 52 38 31 36 67
71 63 59 78 81 70 80 82 82 76 78 91 92 94 88 100 98 97 98 100 98 94 95 100 92 68 54 54 40 33 52 52
93 92 97 96 96 99 99 99 94 96 83 87 94 100 99 98 100 98 99 96 94 93 95 96 81 69 64 64 53 54 59 78
100 100 100 99 85 92 96 96 97 98 100 89 88 86 99 99 99 99 98 98 94 94 98 100 99 94 93 74 61 67 82 78
96 98 98 100 83 76 81 100 99 98 95 96 88 82 82 95 100 100 99 98 99 99 89 99 100 100 100 81 62 59 78 83
70 79 85 76 78 68 58 87 81 95 79 62 64 82 65 79 89 94 100 100 100 100 97 100 95 98 100 76 61 72 90 85
54 50 48 38 36 39 40 41 45 64 84 67 70 75 90 94 92 82 92 92 100 100 100 100 100 100 99 88 82 82 77 87

GFSFLT1_500_rhum_192.txt.gz
RH
32 32 30 27 25 28 32 34 37 40 42 41 45 49 48 47 44 41 40 39 39 38 39 48 57 65 70 73 77 80 90 93
40 37 37 34 30 30 36 38 43 48 51 50 51 54 54 57 54 52 51 51 54 59 64 70 78 82 84 89 92 93 94 91
42 40 41 39 38 39 40 43 48 51 56 59 58 62 66 62 58 59 63 74 86 91 94 95 95 96 97 97 96 94 98 97
40 40 38 40 41 46 50 52 50 49 51 60 64 65 71 72 71 80 92 94 96 96 98 100 98 96 96 95 96 98 98 96
38 36 39 38 43 45 50 53 54 55 54 62 75 80 84 92 81 84 87 97 98 96 97 98 96 96 100 99 98 97 98 96
35 40 42 46 45 46 54 60 63 58 60 69 86 87 87 85 81 77 90 98 96 95 96 97 98 96 95 99 98 99 97 95
40 44 43 42 47 48 58 59 61 62 71 75 82 92 82 77 80 76 90 88 92 89 96 96 98 88 72 98 93 95 92 100
45 50 48 46 47 52 60 67 68 67 72 78 83 92 86 83 78 59 65 92 70 84 82 82 87 82 77 90 99 98 100 97
51 54 55 51 52 64 66 70 73 64 65 78 92 99 86 90 63 52 64 77 71 63 60 90 99 94 98 87 85 88 99 99
60 66 67 61 54 60 65 64 68 69 82 87 98 95 100 97 83 85 72 78 68 75 71 74 90 99 100 100 90 100 100 94
59 64 69 76 68 56 57 58 58 60 76 75 90 100 100 96 93 89 77 71 80 84 94 96 98 100 100 97 100 99 97 58
47 57 60 74 76 77 78 77 79 86 83 75 76 78 91 83 80 85 78 77 87 93 79 88 97 99 99 99 100 96 93 53
33 40 49 54 61 67 68 62 69 71 68 66 64 64 60 75 81 83 87 96 98 78 73 93 100 99 98 98 100 95 89 80
40 43 41 46 53 70 65 70 67 72 68 71 82 79 78 75 76 84 98 79 95 100 98 99 98 97 98 98 96 99 96 67
62 53 56 55 55 70 81 97 97 93 91 79 98 100 98 98 84 91 99 99 99 99 99 98 96 96 100 100 100 97 72 71
61 62 76 78 92 94 92 97 100 100 94 96 98 100 99 99 100 99 100 99 98 99 98 93 96 94 99 100 100 86 68 64
100 99 94 94 93 89 98 97 99 96 88 86 86 94 100 100 100 98 89 95 99 98 92 93 100 100 100 100 95 94 76 76
94 84 84 83 85 84 80 68 82 64 70 99 80 58 81 83 100 100 98 98 99 99 100 100 100 100 96 100 100 98 99 84
92 84 72 68 61 51 40 41 36 32 24 23 35 70 72 46 46 66 79 79 97 100 99 100 100 100 99 98 100 100 98 82

GFSFLT1_500_rhum_195.txt.gz
RH
37 35 30 28 28 30 31 28 28 30 30 32 33 36 38 37 40 42 41 41 40 38 38 39 39 38 36 37 47 63 75 88
33 37 39 34 28 28 36 37 32 32 36 37 40 44 45 43 44 46 49 48 48 48 49 48 52 56 59 60 70 78 95 95
33 32 32 37 37 32 35 35 35 35 38 43 47 50 51 50 49 48 52 55 56 58 63 73 78 88 96 100 100 95 98 96
35 30 30 27 32 30 37 38 37 39 41 48 52 53 51 53 60 67 74 73 71 68 82 89 95 89 99 96 97 96 97 95
41 38 34 27 32 33 34 37 35 38 42 44 46 57 68 78 84 88 81 74 75 77 92 84 74 92 91 95 100 94 99 99
37 38 37 32 36 37 32 37 36 39 43 46 50 60 74 86 91 94 88 89 96 90 97 86 95 93 83 73 86 69 76 97
39 42 44 40 37 37 37 37 37 42 47 48 52 68 81 84 97 97 100 100 100 96 95 93 93 78 59 54 72 75 73 83
33 42 45 47 41 41 43 42 41 43 50 55 57 70 89 92 97 99 99 99 100 95 99 82 85 77 71 60 63 82 81 98
43 44 53 54 46 45 50 47 50 53 55 76 89 87 100 97 94 100 98 98 96 86 93 77 85 84 82 64 66 81 100 97
40 48 66 66 59 54 54 52 50 55 62 77 88 80 100 98 97 98 98 96 86 94 94 74 80 78 89 79 70 88 90 94
37 44 54 66 66 57 56 59 70 84 82 82 88 86 94 93 90 98 97 96 82 100 92 76 86 84 92 84 79 91 94 98
47 55 59 70 75 67 62 63 67 68 65 72 74 76 79 84 94 93 95 94 76 97 96 81 92 82 87 78 85 97 99 99
57 66 64 71 72 68 71 67 65 74 80 79 74 77 80 89 99 93 88 91 89 85 86 100 99 95 65 69 99 96 99 98
47 59 62 60 65 69 74 71 72 89 92 86 89 94 93 89 82 77 80 79 86 95 71 85 97 95 94 71 98 98 99 93
56 66 72 67 64 68 66 64 76 66 65 70 76 82 80 76 73 68 68 79 76 89 92 87 93 100 98 99 98 94 94 92
70 70 80 66 67 74 69 82 96 100 100 97 99 87 80 75 82 78 81 85 98 98 100 95 99 98 99 97 98 96 98 99
80 100 84 74 79 75 91 98 100 98 95 100 99 99 100 100 100 99 100 100 99 99 97 98 99 98 98 99 96 100 99 100
94 100 99 100 100 99 98 97 98 87 71 73 83 66 55 89 87 55 80 98 99 98 100 98 99 100 100 99 100 100 96 100
99 98 97 100 98 95 96 84 63 57 50 45 38 34 32 28 28 31 25 26 43 58 94 99 100 99 99 90 100 100 100 96

GFSFLT1_500_rhum_201.txt.gz
RH
33 34 26 21 18 20 24 33 30 27 27 26 24 23 23 26 31 30 28 30 33 34 35 36 38 36 35 36 39 39 40 42
23 24 31 28 20 22 23 26 36 32 32 30 30 30 30 28 32 43 34 31 36 38 38 39 40 41 41 40 42 46 50 57
32 32 35 35 27 24 26 29 27 34 32 37 37 38 35 33 31 35 36 35 36 38 43 45 46 47 48 48 51 54 59 78
26 37 42 47 36 28 30 32 33 33 36 34 34 36 34 32 35 36 36 39 43 45 49 51 54 54 55 58 61 62 76 95
42 42 45 46 39 34 36 41 38 40 43 37 33 33 31 35 44 42 43 53 52 50 51 56 59 60 63 72 73 74 97 99
66 50 42 45 41 37 35 36 37 38 42 42 38 35 33 35 36 36 43 48 51 52 53 61 63 68 74 84 93 98 100 97
65 51 49 53 55 37 40 34 34 32 38 40 42 38 35 35 35 33 39 51 60 57 55 68 69 73 84 90 95 95 98 96
72 86 79 75 68 53 46 37 30 26 37 51 49 44 40 39 44 43 44 51 59 64 71 78 92 89 95 96 94 94 96 96
66 78 79 65 56 53 50 45 39 31 36 50 55 54 49 46 48 48 48 53 66 72 86 89 99 98 97 97 94 95 95 96
56 64 72 69 76 74 65 53 55 44 38 48 45 42 44 51 52 51 51 62 69 76 90 96 94 97 97 97 96 96 96 98
44 52 64 78 83 98 91 62 41 48 48 53 58 47 47 48 54 56 57 62 74 80 89 94 93 89 93 90 89 94 95 98
31 38 58 65 81 94 98 65 58 61 55 53 58 54 57 56 59 63 60 64 75 94 99 95 94 94 97 99 99 97 97 98
45 50 44 63 87 96 96 75 70 70 64 58 63 67 70 73 66 68 68 66 68 80 98 98 99 98 97 98 92 78 97 94
68 82 85 75 70 93 76 96 100 74 60 61 65 76 81 78 90 73 68 70 87 100 100 99 99 99 95 95 94 100 97 97
93 95 90 94 66 88 87 97 93 95 85 89 87 86 81 77 74 71 69 66 71 77 78 78 81 79 75 95 98 89 96 96
67 98 98 95 78 74 97 99 97 99 90 100 94 91 94 88 81 73 69 69 68 74 77 85 92 96 83 88 89 96 93 90
13 93 99 93 92 100 98 99 98 99 94 94 92 94 86 89 90 86 79 77 75 82 86 78 90 100 100 99 97 98 96 85
29 34 95 95 83 99 100 95 99 98 98 97 95 92 96 96 96 96 95 89 98 100 100 100 100 95 97 99 98 96 91 57
48 39 64 85 68 88 73 95 99 100 100 99 99 95 99 100 100 100 99 100 100 97 94 97 77 67 45 40 40 50 50 30

GFSFLT1_500_rhum_204.txt.gz
RH
23 22 22 24 28 30 29 30 31 32 31 28 26 25 24 27 27 31 33 37 40 43 44 39 34 34 35 40 40 36 34 37
30 27 23 20 23 24 25 27 32 29 28 30 32 32 32 34 36 35 38 40 37 32 38 40 40 39 40 44 44 41 40 41
28 35 30 23 23 28 31 29 31 33 33 36 35 37 35 35 36 36 34 33 31 34 37 41 43 44 43 44 46 47 47 49
27 31 34 29 23 32 33 38 33 34 38 41 39 34 30 26 31 38 41 43 41 37 37 40 44 45 46 48 48 51 53 56
32 30 31 32 24 25 28 35 36 41 40 40 46 43 38 38 37 39 46 50 48 45 42 43 48 52 52 54 54 57 60 64
42 37 34 37 34 24 26 32 33 37 44 48 43 43 50 47 41 38 39 49 52 49 48 46 50 58 62 58 63 67 75 92
51 47 53 64 58 44 38 36 39 48 51 44 43 45 41 44 41 37 42 53 62 58 58 54 53 61 73 71 69 68 76 92
71 76 64 60 54 60 56 56 54 52 54 44 36 36 47 45 45 41 42 48 57 64 69 65 61 68 84 93 90 85 88 96
50 55 56 56 62 58 54 58 61 57 58 55 52 38 41 48 50 44 40 44 55 68 74 74 73 72 87 100 98 92 94 97
54 54 63 54 66 60 66 95 68 69 59 75 71 53 42 48 61 58 49 51 54 71 82 83 83 81 81 89 92 96 97 96
40 64 65 63 56 60 81 76 67 61 71 81 94 78 72 76 86 66 50 42 53 66 85 92 96 95 94 90 92 95 83 95
51 72 62 55 53 43 50 52 55 61 87 86 98 87 93 98 96 67 53 46 53 70 82 90 92 92 88 91 88 88 82 90
79 75 61 59 58 75 48 65 68 65 81 96 96 95 89 97 81 69 63 62 57 82 89 91 94 97 99 96 92 90 95 94
93 96 62 91 84 100 100 74 73 83 97 90 97 97 98 96 75 61 63 60 72 81 94 94 94 91 94 87 90 100 98 99
99 99 98 99 92 69 70 90 89 92 93 97 96 96 98 96 75 68 76 80 79 86 97 97 96 86 77 86 100 100 93 94
100 96 86 85 53 36 44 90 99 89 86 97 79 91 97 76 87 86 88 80 80 78 83 88 90 85 84 84 88 93 99 98
96 95 67 50 42 31 26 73 95 99 97 99 82 99 79 91 90 78 87 81 76 70 71 71 72 74 83 92 100 100 97 99
73 77 88 41 28 23 30 28 60 96 100 93 99 96 98 96 88 96 95 92 81 78 76 76 72 74 82 93 96 93 86 98
49 24 23 31 38 25 44 38 33 46 66 80 97 98 98 99 99 98 95 94 89 96 94 83 83 83 95 98 99 100 99 95

GFSFLT1_500_rhum_207.txt.gz
RH
30 26 26 28 32 35 34 32 31 30 30 31 30 28 24 22 24 30 34 36 41 42 36 34 36 37 37 36 39 41 39 40
36 29 24 26 22 27 31 30 30 27 25 24 27 32 34 31 30 33 37 37 40 43 40 36 36 39 42 38 36 37 37 41
34 33 35 27 27 22 24 30 32 30 29 30 28 35 38 40 37 35 38 38 38 38 40 40 37 37 38 40 38 39 39 41
33 35 31 28 26 28 26 28 28 35 38 36 33 32 32 30 29 34 38 42 45 45 43 40 38 37 38 42 42 41 44 44
26 32 33 28 27 30 30 30 40 36 35 36 38 40 39 43 44 44 44 44 52 54 53 50 47 45 44 51 49 46 46 49
34 34 34 34 32 30 30 36 34 34 40 40 41 45 49 54 55 54 48 44 44 52 55 56 54 52 54 55 59 56 54 56
38 33 39 43 40 32 35 36 30 36 39 40 42 45 53 56 55 63 67 66 58 55 55 66 66 62 60 60 63 66 72 69
31 35 37 39 45 39 33 31 36 38 35 46 45 45 66 62 56 61 68 69 63 56 62 63 70 74 73 71 67 65 69 76
23 32 39 44 51 51 44 39 42 49 50 53 66 72 62 58 53 54 59 70 68 68 68 66 66 75 78 80 75 72 73 85
23 31 34 42 57 71 72 82 68 66 65 73 85 93 76 60 58 44 41 48 64 94 99 96 90 86 87 90 86 80 79 84
20 24 22 32 51 57 63 80 87 71 61 74 86 98 89 81 80 61 55 46 68 91 100 98 96 97 96 96 94 92 90 88
30 29 23 24 46 52 66 77 81 69 62 71 65 85 88 86 61 67 67 71 78 97 98 98 96 96 92 92 89 84 91 88
57 38 37 38 54 53 73 66 69 69 81 81 83 73 63 53 47 64 86 81 95 97 96 94 90 87 78 90 88 92 88 95
53 56 55 44 63 72 80 63 72 92 91 93 83 79 63 52 58 98 93 93 96 96 87 84 80 80 77 93 91 90 89 90
90 96 73 56 48 40 95 93 78 89 82 86 61 62 53 54 58 64 66 97 97 89 80 77 73 78 82 86 94 97 91 95
98 98 84 67 73 95 98 88 79 83 54 46 59 77 81 74 71 69 83 97 99 96 87 68 74 87 81 81 91 98 94 96
97 95 100 100 100 100 95 91 45 60 42 54 95 72 98 85 96 99 92 81 96 94 93 71 95 96 88 92 81 91 90 91
84 97 90 99 97 97 98 86 70 35 37 38 56 90 96 88 96 95 91 100 100 99 98 83 81 97 96 98 88 82 82 83
42 44 51 93 94 100 92 87 65 65 54 33 31 26 40 93 94 88 95 98 98 98 100 95 100 98 99 99 98 90 91 85

GFSFLT1_500_rhum_210.txt.gz
RH
31 28 31 34 34 33 34 35 32 29 28 25 24 24 24 26 26 28 30 30 36 40 39 43 36 30 34 39 44 45 41 38
44 38 36 28 30 38 34 34 36 32 29 27 26 27 29 31 32 33 34 30 28 31 34 44 42 36 38 40 40 41 38 35
45 46 40 37 36 34 38 32 31 32 32 32 32 34 36 38 36 32 32 31 31 31 36 40 40 38 34 35 37 40 42 42
28 28 30 29 28 32 32 42 36 28 31 33 31 33 32 30 30 30 34 36 38 39 39 39 41 45 43 35 36 38 44 43
31 28 24 26 28 28 28 30 34 37 30 28 28 30 34 38 42 45 47 48 47 48 48 47 45 45 52 49 45 42 45 46
28 35 36 31 26 25 29 32 33 37 39 30 31 33 38 47 43 42 42 43 42 44 48 51 50 51 51 51 50 47 50 52
30 32 35 40 37 33 32 33 32 36 39 43 37 34 38 45 45 50 54 58 58 51 47 46 49 48 51 55 57 56 54 56
36 36 34 35 42 42 40 38 37 36 35 38 49 54 51 43 46 61 70 70 72 76 74 67 60 57 60 68 68 68 65 63
32 31 33 37 40 38 37 33 32 38 41 38 42 45 49 53 54 57 81 83 95 100 99 94 85 79 71 72 67 69 69 74
25 24 27 24 33 45 44 42 41 42 47 53 52 58 53 54 64 76 82 100 100 99 99 80 74 72 86 88 77 77 75 88
34 35 30 23 24 32 51 59 60 57 51 62 58 58 71 66 65 66 90 88 90 100 98 98 81 95 91 97 87 92 90 94
28 28 27 20 24 27 39 58 62 53 51 55 63 63 70 77 69 67 81 68 86 100 96 83 90 97 93 97 97 96 96 97
41 46 37 29 24 23 18 30 45 55 37 41 55 64 64 82 78 61 90 80 96 85 90 69 90 92 97 98 94 95 96 89
64 64 51 39 23 30 29 32 53 59 64 66 64 59 64 73 78 72 73 96 94 98 89 73 70 89 96 96 94 94 80 75
76 60 62 60 54 55 43 49 50 65 63 66 74 59 52 48 72 74 85 90 92 94 98 83 75 96 96 97 94 87 77 83
91 91 90 78 72 66 56 54 63 79 65 48 39 29 31 45 73 81 74 84 84 76 84 87 88 94 96 94 76 89 71 67
91 89 68 64 62 51 69 77 79 83 83 82 56 44 52 70 71 73 69 66 51 74 99 80 97 97 95 95 74 84 73 78
74 76 81 82 73 56 51 67 97 89 91 82 74 67 92 94 79 60 59 51 74 96 97 99 97 97 97 91 94 82 82 96
29 31 31 48 64 58 60 71 99 100 96 67 44 81 67 70 50 51 55 82 93 98 95 97 99 100 95 100 99 98 94 92